owner,sensor,date,latitude,longitude,vertical_datum,sea_water_temperature,qcFlag
Shell,ioos:station:wmo:42877:2,2022-04-01T00:08:00Z,26.1540,-94.7874,9.7,22.9,11111222
Shell,ioos:station:wmo:42877:2,2022-04-01T00:18:00Z,26.1540,-94.7874,9.7,22.9,11111222
Shell,ioos:station:wmo:42877:2,2022-04-01T00:28:00Z,26.1540,-94.7874,9.6,22.9,11111222
Shell,ioos:station:wmo:42877:2,2022-04-01T00:38:00Z,26.1540,-94.7874,9.7,22.9,11111222
Shell,ioos:station:wmo:42877:2,2022-04-01T00:48:00Z,26.1540,-94.7874,9.6,22.9,11111222
Shell,ioos:station:wmo:42877:2,2022-04-01T00:58:00Z,26.1540,-94.7874,9.7,22.9,11111222
Shell,ioos:station:wmo:42877:2,2022-04-01T01:08:00Z,26.1540,-94.7874,9.7,22.9,11111222
Shell,ioos:station:wmo:42877:2,2022-04-01T01:18:00Z,26.1540,-94.7874,9.7,22.9,11111222
Shell,ioos:station:wmo:42877:2,2022-04-01T01:29:00Z,26.1540,-94.7874,9.7,22.9,11111222
Shell,ioos:station:wmo:42877:2,2022-04-01T01:39:00Z,26.1540,-94.7874,9.7,22.9,11111222
Shell,ioos:station:wmo:42877:2,2022-04-01T01:49:00Z,26.1540,-94.7874,9.7,22.9,11111222
Shell,ioos:station:wmo:42877:2,2022-04-01T01:58:00Z,26.1540,-94.7874,9.6,22.9,11111222
Shell,ioos:station:wmo:42877:2,2022-04-01T02:08:00Z,26.1540,-94.7874,9.4,22.9,11111222
Shell,ioos:station:wmo:42877:2,2022-04-01T02:18:00Z,26.1540,-94.7874,9.5,22.9,11111222
Shell,ioos:station:wmo:42877:2,2022-04-01T02:28:00Z,26.1540,-94.7874,9.5,22.9,11111222
Shell,ioos:station:wmo:42877:2,2022-04-01T02:38:00Z,26.1540,-94.7874,9.5,22.9,11111222
Shell,ioos:station:wmo:42877:2,2022-04-01T02:48:00Z,26.1540,-94.7874,9.5,22.9,11111222
Shell,ioos:station:wmo:42877:2,2022-04-01T02:58:00Z,26.1540,-94.7874,9.5,22.9,11111222
Shell,ioos:station:wmo:42877:2,2022-04-01T03:08:00Z,26.1540,-94.7874,9.5,22.9,11111222
Shell,ioos:station:wmo:42877:2,2022-04-01T03:18:00Z,26.1540,-94.7874,9.5,22.9,11111222
Shell,ioos:station:wmo:42877:2,2022-04-01T03:29:00Z,26.1540,-94.7874,9.5,22.9,11111222
Shell,ioos:station:wmo:42877:2,2022-04-01T03:39:00Z,26.1540,-94.7874,9.5,22.9,11111222
Shell,ioos:station:wmo:42877:2,2022-04-01T03:48:00Z,26.1540,-94.7874,9.5,22.9,11111222
Shell,ioos:station:wmo:42877:2,2022-04-01T03:58:00Z,26.1540,-94.7874,9.5,22.9,11111222
Shell,ioos:station:wmo:42877:2,2022-04-01T04:08:00Z,26.1540,-94.7874,9.5,22.9,11111222
Shell,ioos:station:wmo:42877:2,2022-04-01T04:18:00Z,26.1540,-94.7874,9.5,22.9,11111222
Shell,ioos:station:wmo:42877:2,2022-04-01T04:28:00Z,26.1540,-94.7874,9.7,22.9,11111222
Shell,ioos:station:wmo:42877:2,2022-04-01T04:38:00Z,26.1540,-94.7874,9.7,22.9,11111222
Shell,ioos:station:wmo:42877:2,2022-04-01T04:48:00Z,26.1540,-94.7874,9.5,22.9,11111222
Shell,ioos:station:wmo:42877:2,2022-04-01T04:58:00Z,26.1540,-94.7874,9.4,22.9,11111222
Shell,ioos:station:wmo:42877:2,2022-04-01T05:09:00Z,26.1540,-94.7874,9.4,22.9,11111222
Shell,ioos:station:wmo:42877:2,2022-04-01T05:19:00Z,26.1540,-94.7874,9.4,22.9,11111222
Shell,ioos:station:wmo:42877:2,2022-04-01T05:28:00Z,26.1540,-94.7874,9.4,22.9,11111222
Shell,ioos:station:wmo:42877:2,2022-04-01T05:38:00Z,26.1540,-94.7874,9.3,22.9,11111222
Shell,ioos:station:wmo:42877:2,2022-04-01T05:48:00Z,26.1540,-94.7874,9.4,22.9,11111222
Shell,ioos:station:wmo:42877:2,2022-04-01T05:58:00Z,26.1540,-94.7874,9.3,22.8,11111222
Shell,ioos:station:wmo:42877:2,2022-04-01T06:08:00Z,26.1540,-94.7874,9.5,22.8,11111222
Shell,ioos:station:wmo:42877:2,2022-04-01T06:18:00Z,26.1540,-94.7874,9.5,22.8,11111222
Shell,ioos:station:wmo:42877:2,2022-04-01T06:28:00Z,26.1540,-94.7874,9.7,22.8,11111222
Shell,ioos:station:wmo:42877:2,2022-04-01T06:39:00Z,26.1540,-94.7874,9.8,22.8,11111222
Shell,ioos:station:wmo:42877:2,2022-04-01T06:49:00Z,26.1540,-94.7874,9.9,22.8,11111222
Shell,ioos:station:wmo:42877:2,2022-04-01T06:58:00Z,26.1540,-94.7874,9.9,22.8,11111222
Shell,ioos:station:wmo:42877:2,2022-04-01T07:08:00Z,26.1540,-94.7874,9.7,22.8,11111222
Shell,ioos:station:wmo:42877:2,2022-04-01T07:18:00Z,26.1540,-94.7874,9.9,22.8,11111222
Shell,ioos:station:wmo:42877:2,2022-04-01T07:28:00Z,26.1540,-94.7874,9.8,22.8,11111222
Shell,ioos:station:wmo:42877:2,2022-04-01T07:38:00Z,26.1540,-94.7874,9.8,22.8,11111222
Shell,ioos:station:wmo:42877:2,2022-04-01T07:48:00Z,26.1540,-94.7874,9.9,22.8,11111222
Shell,ioos:station:wmo:42877:2,2022-04-01T07:58:00Z,26.1540,-94.7874,9.8,22.8,11111222
Shell,ioos:station:wmo:42877:2,2022-04-01T08:08:00Z,26.1540,-94.7874,10.0,22.8,11111222
Shell,ioos:station:wmo:42877:2,2022-04-01T08:18:00Z,26.1540,-94.7874,9.9,22.8,11111222
Shell,ioos:station:wmo:42877:2,2022-04-01T08:29:00Z,26.1540,-94.7874,10.1,22.8,11111222
Shell,ioos:station:wmo:42877:2,2022-04-01T08:39:00Z,26.1540,-94.7874,9.9,22.8,11111222
Shell,ioos:station:wmo:42877:2,2022-04-01T08:48:00Z,26.1540,-94.7874,9.9,22.8,11111222
Shell,ioos:station:wmo:42877:2,2022-04-01T08:58:00Z,26.1540,-94.7874,9.9,22.8,11111222
Shell,ioos:station:wmo:42877:2,2022-04-01T09:08:00Z,26.1540,-94.7874,9.9,22.8,11111222
Shell,ioos:station:wmo:42877:2,2022-04-01T09:18:00Z,26.1540,-94.7874,9.9,22.8,11111222
Shell,ioos:station:wmo:42877:2,2022-04-01T09:28:00Z,26.1540,-94.7874,9.9,22.8,11111222
Shell,ioos:station:wmo:42877:2,2022-04-01T09:38:00Z,26.1540,-94.7874,9.9,22.8,11111222
Shell,ioos:station:wmo:42877:2,2022-04-01T09:48:00Z,26.1540,-94.7874,10.0,22.8,11111222
Shell,ioos:station:wmo:42877:2,2022-04-01T09:58:00Z,26.1540,-94.7874,9.9,22.8,11111222
Shell,ioos:station:wmo:42877:2,2022-04-01T10:08:00Z,26.1540,-94.7874,9.9,22.7,11111222
Shell,ioos:station:wmo:42877:2,2022-04-01T10:18:00Z,26.1540,-94.7874,9.9,22.7,11111222
Shell,ioos:station:wmo:42877:2,2022-04-01T10:29:00Z,26.1540,-94.7874,9.9,22.7,11111222
Shell,ioos:station:wmo:42877:2,2022-04-01T10:39:00Z,26.1540,-94.7874,9.9,22.7,11111222
Shell,ioos:station:wmo:42877:2,2022-04-01T10:49:00Z,26.1540,-94.7874,9.9,22.7,11111222
Shell,ioos:station:wmo:42877:2,2022-04-01T10:58:00Z,26.1540,-94.7874,9.9,22.7,11111222
Shell,ioos:station:wmo:42877:2,2022-04-01T11:08:00Z,26.1540,-94.7874,9.8,22.7,11111222
Shell,ioos:station:wmo:42877:2,2022-04-01T11:18:00Z,26.1540,-94.7874,9.9,22.7,11111222
Shell,ioos:station:wmo:42877:2,2022-04-01T11:28:00Z,26.1540,-94.7874,10.1,22.7,11111222
Shell,ioos:station:wmo:42877:2,2022-04-01T11:38:00Z,26.1540,-94.7874,10.1,22.7,11111222
Shell,ioos:station:wmo:42877:2,2022-04-01T11:48:00Z,26.1540,-94.7874,10.0,22.7,11111222
Shell,ioos:station:wmo:42877:2,2022-04-01T11:58:00Z,26.1540,-94.7874,10.0,22.7,11111222
Shell,ioos:station:wmo:42877:2,2022-04-01T12:08:00Z,26.1540,-94.7874,10.0,22.8,11111222
Shell,ioos:station:wmo:42877:2,2022-04-01T12:18:00Z,26.1540,-94.7874,9.9,22.8,11111222
Shell,ioos:station:wmo:42877:2,2022-04-01T12:28:00Z,26.1540,-94.7874,10.1,22.8,11111222
Shell,ioos:station:wmo:42877:2,2022-04-01T12:39:00Z,26.1540,-94.7874,10.0,22.8,11111222
Shell,ioos:station:wmo:42877:2,2022-04-01T12:49:00Z,26.1540,-94.7874,9.9,22.8,11111222
Shell,ioos:station:wmo:42877:2,2022-04-01T12:58:00Z,26.1540,-94.7874,10.0,22.8,11111222
Shell,ioos:station:wmo:42877:2,2022-04-01T13:08:00Z,26.1540,-94.7874,9.9,22.8,11111222
Shell,ioos:station:wmo:42877:2,2022-04-01T13:18:00Z,26.1540,-94.7874,9.9,22.8,11111222
Shell,ioos:station:wmo:42877:2,2022-04-01T13:28:00Z,26.1540,-94.7874,10.0,22.8,11111222
Shell,ioos:station:wmo:42877:2,2022-04-01T13:38:00Z,26.1540,-94.7874,9.9,22.8,11111222
Shell,ioos:station:wmo:42877:2,2022-04-01T13:48:00Z,26.1540,-94.7874,9.9,22.8,11111222
Shell,ioos:station:wmo:42877:2,2022-04-01T13:58:00Z,26.1540,-94.7874,9.9,22.8,11111222
Shell,ioos:station:wmo:42877:2,2022-04-01T14:08:00Z,26.1540,-94.7874,9.9,22.8,11111222
Shell,ioos:station:wmo:42877:2,2022-04-01T14:19:00Z,26.1540,-94.7874,9.9,22.8,11111222
Shell,ioos:station:wmo:42877:2,2022-04-01T14:29:00Z,26.1540,-94.7874,10.0,22.8,11111222
Shell,ioos:station:wmo:42877:2,2022-04-01T14:38:00Z,26.1540,-94.7874,9.9,22.8,11111222
Shell,ioos:station:wmo:42877:2,2022-04-01T14:48:00Z,26.1540,-94.7874,9.9,22.8,11111222
Shell,ioos:station:wmo:42877:2,2022-04-01T14:58:00Z,26.1540,-94.7874,9.9,22.8,11111222
Shell,ioos:station:wmo:42877:2,2022-04-01T15:08:00Z,26.1540,-94.7874,9.9,22.8,11111222
Shell,ioos:station:wmo:42877:2,2022-04-01T15:18:00Z,26.1540,-94.7874,9.9,22.8,11111222
Shell,ioos:station:wmo:42877:2,2022-04-01T15:28:00Z,26.1540,-94.7874,9.9,22.8,11111222
Shell,ioos:station:wmo:42877:2,2022-04-01T15:38:00Z,26.1540,-94.7874,9.9,22.8,11111222
Shell,ioos:station:wmo:42877:2,2022-04-01T15:48:00Z,26.1540,-94.7874,9.9,22.8,11111222
Shell,ioos:station:wmo:42877:2,2022-04-01T15:58:00Z,26.1540,-94.7874,10.1,22.8,11111222
Shell,ioos:station:wmo:42877:2,2022-04-01T16:08:00Z,26.1540,-94.7874,10.1,22.8,11111222
Shell,ioos:station:wmo:42877:2,2022-04-01T16:18:00Z,26.1540,-94.7874,10.0,22.8,11111222
Shell,ioos:station:wmo:42877:2,2022-04-01T16:28:00Z,26.1540,-94.7874,10.0,22.8,11111222
Shell,ioos:station:wmo:42877:2,2022-04-01T16:38:00Z,26.1540,-94.7874,10.0,22.8,11111222
Shell,ioos:station:wmo:42877:2,2022-04-01T16:49:00Z,26.1540,-94.7874,10.0,22.8,11111222
Shell,ioos:station:wmo:42877:2,2022-04-01T16:59:00Z,26.1540,-94.7874,10.0,22.8,11111222
Shell,ioos:station:wmo:42877:2,2022-04-01T17:09:00Z,26.1540,-94.7874,10.0,22.8,11111222
Shell,ioos:station:wmo:42877:2,2022-04-01T17:18:00Z,26.1540,-94.7874,10.0,22.8,11111222
Shell,ioos:station:wmo:42877:2,2022-04-01T17:28:00Z,26.1540,-94.7874,10.0,22.8,11111222
Shell,ioos:station:wmo:42877:2,2022-04-01T17:38:00Z,26.1540,-94.7874,10.0,22.8,11111222
Shell,ioos:station:wmo:42877:2,2022-04-01T17:48:00Z,26.1540,-94.7874,10.0,22.8,11111222
Shell,ioos:station:wmo:42877:2,2022-04-01T17:58:00Z,26.1540,-94.7874,10.0,22.8,11111222
Shell,ioos:station:wmo:42877:2,2022-04-01T18:08:00Z,26.1540,-94.7874,10.1,22.8,11111222
Shell,ioos:station:wmo:42877:2,2022-04-01T18:18:00Z,26.1540,-94.7874,10.0,22.8,11111222
Shell,ioos:station:wmo:42877:2,2022-04-01T18:28:00Z,26.1540,-94.7874,10.1,22.8,11111222
Shell,ioos:station:wmo:42877:2,2022-04-01T18:38:00Z,26.1540,-94.7874,10.1,22.8,11111222
Shell,ioos:station:wmo:42877:2,2022-04-01T18:48:00Z,26.1540,-94.7874,10.1,22.8,11111222
Shell,ioos:station:wmo:42877:2,2022-04-01T18:59:00Z,26.1540,-94.7874,10.0,22.8,11111222
Shell,ioos:station:wmo:42877:2,2022-04-01T19:09:00Z,26.1540,-94.7874,10.0,22.8,11111222
Shell,ioos:station:wmo:42877:2,2022-04-01T19:19:00Z,26.1540,-94.7874,10.0,22.8,11111222
Shell,ioos:station:wmo:42877:2,2022-04-01T19:28:00Z,26.1540,-94.7874,10.1,22.8,11111222
Shell,ioos:station:wmo:42877:2,2022-04-01T19:38:00Z,26.1540,-94.7874,10.1,22.8,11111222
Shell,ioos:station:wmo:42877:2,2022-04-01T19:48:00Z,26.1540,-94.7874,10.1,22.8,11111222
Shell,ioos:station:wmo:42877:2,2022-04-01T19:58:00Z,26.1540,-94.7874,10.0,22.7,11111222
Shell,ioos:station:wmo:42877:2,2022-04-01T20:08:00Z,26.1540,-94.7874,10.0,22.7,11111222
Shell,ioos:station:wmo:42877:2,2022-04-01T20:18:00Z,26.1540,-94.7874,10.0,22.7,11111222
Shell,ioos:station:wmo:42877:2,2022-04-01T20:28:00Z,26.1540,-94.7874,10.0,22.7,11111222
Shell,ioos:station:wmo:42877:2,2022-04-01T20:38:00Z,26.1540,-94.7874,10.0,22.8,11111222
Shell,ioos:station:wmo:42877:2,2022-04-01T20:48:00Z,26.1540,-94.7874,10.0,22.8,11111222
Shell,ioos:station:wmo:42877:2,2022-04-01T20:59:00Z,26.1540,-94.7874,10.1,22.7,11111222
Shell,ioos:station:wmo:42877:2,2022-04-01T21:09:00Z,26.1540,-94.7874,10.1,22.8,11111222
Shell,ioos:station:wmo:42877:2,2022-04-01T21:19:00Z,26.1540,-94.7874,10.1,22.8,11111222
Shell,ioos:station:wmo:42877:2,2022-04-01T21:28:00Z,26.1540,-94.7874,10.1,22.8,11111222
Shell,ioos:station:wmo:42877:2,2022-04-01T21:38:00Z,26.1540,-94.7874,10.1,22.8,11111222
Shell,ioos:station:wmo:42877:2,2022-04-01T21:48:00Z,26.1540,-94.7874,10.1,22.8,11111222
Shell,ioos:station:wmo:42877:2,2022-04-01T21:58:00Z,26.1540,-94.7874,10.1,22.8,11111222
Shell,ioos:station:wmo:42877:2,2022-04-01T22:08:00Z,26.1540,-94.7874,10.2,22.7,11111222
Shell,ioos:station:wmo:42877:2,2022-04-01T22:18:00Z,26.1540,-94.7874,10.2,22.7,11111222
Shell,ioos:station:wmo:42877:2,2022-04-01T22:28:00Z,26.1540,-94.7874,10.2,22.7,11111222
Shell,ioos:station:wmo:42877:2,2022-04-01T22:38:00Z,26.1540,-94.7874,10.2,22.7,11111222
Shell,ioos:station:wmo:42877:2,2022-04-01T22:48:00Z,26.1540,-94.7874,10.2,22.7,11111222
Shell,ioos:station:wmo:42877:2,2022-04-01T22:58:00Z,26.1540,-94.7874,10.2,22.7,11111222
Shell,ioos:station:wmo:42877:2,2022-04-01T23:09:00Z,26.1540,-94.7874,10.2,22.7,11111222
Shell,ioos:station:wmo:42877:2,2022-04-01T23:19:00Z,26.1540,-94.7874,10.2,22.7,11111222
Shell,ioos:station:wmo:42877:2,2022-04-01T23:29:00Z,26.1540,-94.7874,10.1,22.7,11111222
Shell,ioos:station:wmo:42877:2,2022-04-01T23:38:00Z,26.1540,-94.7874,10.1,22.7,11111222
Shell,ioos:station:wmo:42877:2,2022-04-01T23:48:00Z,26.1540,-94.7874,10.2,22.7,11111222
Shell,ioos:station:wmo:42877:2,2022-04-01T23:58:00Z,26.1540,-94.7874,10.0,22.7,11111222
Shell,ioos:station:wmo:42877:2,2022-04-02T00:08:00Z,26.1540,-94.7874,9.9,22.7,11111222
Shell,ioos:station:wmo:42877:2,2022-04-02T00:18:00Z,26.1540,-94.7874,9.9,22.7,11111222
Shell,ioos:station:wmo:42877:2,2022-04-02T00:28:00Z,26.1540,-94.7874,10.1,22.7,11111222
Shell,ioos:station:wmo:42877:2,2022-04-02T00:38:00Z,26.1540,-94.7874,10.0,22.7,11111222
Shell,ioos:station:wmo:42877:2,2022-04-02T00:48:00Z,26.1540,-94.7874,10.1,22.7,11111222
Shell,ioos:station:wmo:42877:2,2022-04-02T00:58:00Z,26.1540,-94.7874,10.1,22.7,11111222
Shell,ioos:station:wmo:42877:2,2022-04-02T01:08:00Z,26.1540,-94.7874,10.0,22.7,11111222
Shell,ioos:station:wmo:42877:2,2022-04-02T01:19:00Z,26.1540,-94.7874,9.9,22.7,11111222
Shell,ioos:station:wmo:42877:2,2022-04-02T01:29:00Z,26.1540,-94.7874,9.9,22.7,11111222
Shell,ioos:station:wmo:42877:2,2022-04-02T01:39:00Z,26.1540,-94.7874,10.0,22.7,11111222
Shell,ioos:station:wmo:42877:2,2022-04-02T01:49:00Z,26.1540,-94.7874,10.0,22.7,11111222
Shell,ioos:station:wmo:42877:2,2022-04-02T01:58:00Z,26.1540,-94.7874,9.9,22.7,11111222
Shell,ioos:station:wmo:42877:2,2022-04-02T02:09:00Z,26.1540,-94.7874,9.9,22.7,11111222
Shell,ioos:station:wmo:42877:2,2022-04-02T02:18:00Z,26.1540,-94.7874,9.9,22.7,11111222
Shell,ioos:station:wmo:42877:2,2022-04-02T02:28:00Z,26.1540,-94.7874,9.8,22.7,11111222
Shell,ioos:station:wmo:42877:2,2022-04-02T02:38:00Z,26.1540,-94.7874,9.8,22.7,11111222
Shell,ioos:station:wmo:42877:2,2022-04-02T02:48:00Z,26.1540,-94.7874,9.8,22.7,11111222
Shell,ioos:station:wmo:42877:2,2022-04-02T02:58:00Z,26.1540,-94.7874,9.8,22.7,11111222
Shell,ioos:station:wmo:42877:2,2022-04-02T03:08:00Z,26.1540,-94.7874,9.8,22.7,11111222
Shell,ioos:station:wmo:42877:2,2022-04-02T03:18:00Z,26.1540,-94.7874,9.8,22.7,11111222
Shell,ioos:station:wmo:42877:2,2022-04-02T03:28:00Z,26.1540,-94.7874,9.8,22.7,11111222
Shell,ioos:station:wmo:42877:2,2022-04-02T03:39:00Z,26.1540,-94.7874,9.8,22.7,11111222
Shell,ioos:station:wmo:42877:2,2022-04-02T03:49:00Z,26.1540,-94.7874,9.8,22.7,11111222
Shell,ioos:station:wmo:42877:2,2022-04-02T03:59:00Z,26.1540,-94.7874,9.8,22.7,11111222
Shell,ioos:station:wmo:42877:2,2022-04-02T04:08:00Z,26.1540,-94.7874,9.8,22.7,11111222
Shell,ioos:station:wmo:42877:2,2022-04-02T04:18:00Z,26.1540,-94.7874,9.8,22.7,11111222
Shell,ioos:station:wmo:42877:2,2022-04-02T04:28:00Z,26.1540,-94.7874,9.9,22.7,11111222
Shell,ioos:station:wmo:42877:2,2022-04-02T04:38:00Z,26.1540,-94.7874,10.0,22.7,11111222
Shell,ioos:station:wmo:42877:2,2022-04-02T04:48:00Z,26.1540,-94.7874,10.0,22.7,11111222
Shell,ioos:station:wmo:42877:2,2022-04-02T04:58:00Z,26.1540,-94.7874,10.0,22.7,11111222
Shell,ioos:station:wmo:42877:2,2022-04-02T05:08:00Z,26.1540,-94.7874,10.0,22.7,11111222
Shell,ioos:station:wmo:42877:2,2022-04-02T05:18:00Z,26.1540,-94.7874,10.0,22.7,11111222
Shell,ioos:station:wmo:42877:2,2022-04-02T05:29:00Z,26.1540,-94.7874,10.0,22.7,11111222
Shell,ioos:station:wmo:42877:2,2022-04-02T05:39:00Z,26.1540,-94.7874,10.0,22.7,11111222
Shell,ioos:station:wmo:42877:2,2022-04-02T05:49:00Z,26.1540,-94.7874,10.0,22.6,11111222
Shell,ioos:station:wmo:42877:2,2022-04-02T05:58:00Z,26.1540,-94.7874,10.0,22.6,11111222
Shell,ioos:station:wmo:42877:2,2022-04-02T06:08:00Z,26.1540,-94.7874,10.0,22.6,11111222
Shell,ioos:station:wmo:42877:2,2022-04-02T06:18:00Z,26.1540,-94.7874,9.9,22.6,11111222
Shell,ioos:station:wmo:42877:2,2022-04-02T06:28:00Z,26.1540,-94.7874,10.0,22.6,11111222
Shell,ioos:station:wmo:42877:2,2022-04-02T06:38:00Z,26.1540,-94.7874,9.9,22.6,11111222
Shell,ioos:station:wmo:42877:2,2022-04-02T06:48:00Z,26.1540,-94.7874,9.9,22.6,11111222
Shell,ioos:station:wmo:42877:2,2022-04-02T06:58:00Z,26.1540,-94.7874,9.9,22.6,11111222
Shell,ioos:station:wmo:42877:2,2022-04-02T07:08:00Z,26.1540,-94.7874,9.9,22.6,11111222
Shell,ioos:station:wmo:42877:2,2022-04-02T07:18:00Z,26.1540,-94.7874,9.9,22.6,11111222
Shell,ioos:station:wmo:42877:2,2022-04-02T07:28:00Z,26.1540,-94.7874,9.9,22.6,11111222
Shell,ioos:station:wmo:42877:2,2022-04-02T07:39:00Z,26.1540,-94.7874,9.9,22.6,11111222
Shell,ioos:station:wmo:42877:2,2022-04-02T07:49:00Z,26.1540,-94.7874,9.9,22.6,11111222
Shell,ioos:station:wmo:42877:2,2022-04-02T07:59:00Z,26.1540,-94.7874,9.8,22.6,11111222
Shell,ioos:station:wmo:42877:2,2022-04-02T08:08:00Z,26.1540,-94.7874,9.7,22.6,11111222
Shell,ioos:station:wmo:42877:2,2022-04-02T08:18:00Z,26.1540,-94.7874,9.8,22.6,11111222
Shell,ioos:station:wmo:42877:2,2022-04-02T08:28:00Z,26.1540,-94.7874,9.9,22.6,11111222
Shell,ioos:station:wmo:42877:2,2022-04-02T08:38:00Z,26.1540,-94.7874,10.1,22.6,11111222
Shell,ioos:station:wmo:42877:2,2022-04-02T08:48:00Z,26.1540,-94.7874,10.0,22.6,11111222
Shell,ioos:station:wmo:42877:2,2022-04-02T08:58:00Z,26.1540,-94.7874,10.1,22.6,11111222
Shell,ioos:station:wmo:42877:2,2022-04-02T09:08:00Z,26.1540,-94.7874,10.1,22.6,11111222
Shell,ioos:station:wmo:42877:2,2022-04-02T09:18:00Z,26.1540,-94.7874,10.1,22.6,11111222
Shell,ioos:station:wmo:42877:2,2022-04-02T09:28:00Z,26.1540,-94.7874,10.1,22.6,11111222
Shell,ioos:station:wmo:42877:2,2022-04-02T09:38:00Z,26.1540,-94.7874,10.0,22.6,11111222
Shell,ioos:station:wmo:42877:2,2022-04-02T09:49:00Z,26.1540,-94.7874,10.0,22.6,11111222
Shell,ioos:station:wmo:42877:2,2022-04-02T09:59:00Z,26.1540,-94.7874,10.1,22.6,11111222
Shell,ioos:station:wmo:42877:2,2022-04-02T10:08:00Z,26.1540,-94.7874,10.0,22.6,11111222
Shell,ioos:station:wmo:42877:2,2022-04-02T10:18:00Z,26.1540,-94.7874,10.0,22.6,11111222
Shell,ioos:station:wmo:42877:2,2022-04-02T10:28:00Z,26.1540,-94.7874,10.0,22.6,11111222
Shell,ioos:station:wmo:42877:2,2022-04-02T10:38:00Z,26.1540,-94.7874,10.0,22.6,11111222
Shell,ioos:station:wmo:42877:2,2022-04-02T10:48:00Z,26.1540,-94.7874,10.0,22.6,11111222
Shell,ioos:station:wmo:42877:2,2022-04-02T10:58:00Z,26.1540,-94.7874,10.0,22.6,11111222
Shell,ioos:station:wmo:42877:2,2022-04-02T11:08:00Z,26.1540,-94.7874,10.0,22.6,11111222
Shell,ioos:station:wmo:42877:2,2022-04-02T11:18:00Z,26.1540,-94.7874,10.1,22.6,11111222
Shell,ioos:station:wmo:42877:2,2022-04-02T11:28:00Z,26.1540,-94.7874,10.3,22.6,11111222
Shell,ioos:station:wmo:42877:2,2022-04-02T11:39:00Z,26.1540,-94.7874,10.3,22.6,11111222
Shell,ioos:station:wmo:42877:2,2022-04-02T11:49:00Z,26.1540,-94.7874,10.3,22.6,11111222
Shell,ioos:station:wmo:42877:2,2022-04-02T11:59:00Z,26.1540,-94.7874,10.2,22.6,11111222
Shell,ioos:station:wmo:42877:2,2022-04-02T12:08:00Z,26.1540,-94.7874,10.2,22.6,11111222
Shell,ioos:station:wmo:42877:2,2022-04-02T12:18:00Z,26.1540,-94.7874,10.1,22.6,11111222
Shell,ioos:station:wmo:42877:2,2022-04-02T12:28:00Z,26.1540,-94.7874,10.2,22.6,11111222
Shell,ioos:station:wmo:42877:2,2022-04-02T12:38:00Z,26.1540,-94.7874,10.1,22.6,11111222
Shell,ioos:station:wmo:42877:2,2022-04-02T12:48:00Z,26.1540,-94.7874,10.1,22.6,11111222
Shell,ioos:station:wmo:42877:2,2022-04-02T12:58:00Z,26.1540,-94.7874,10.0,22.6,11111222
Shell,ioos:station:wmo:42877:2,2022-04-02T13:08:00Z,26.1540,-94.7874,10.0,22.6,11111222
Shell,ioos:station:wmo:42877:2,2022-04-02T13:18:00Z,26.1540,-94.7874,10.0,22.6,11111222
Shell,ioos:station:wmo:42877:2,2022-04-02T13:28:00Z,26.1540,-94.7874,10.0,22.6,11111222
Shell,ioos:station:wmo:42877:2,2022-04-02T13:39:00Z,26.1540,-94.7874,10.1,22.6,11111222
Shell,ioos:station:wmo:42877:2,2022-04-02T13:49:00Z,26.1540,-94.7874,10.1,22.6,11111222
Shell,ioos:station:wmo:42877:2,2022-04-02T13:59:00Z,26.1540,-94.7874,10.1,22.6,11111222
Shell,ioos:station:wmo:42877:2,2022-04-02T14:08:00Z,26.1540,-94.7874,10.1,22.6,11111222
Shell,ioos:station:wmo:42877:2,2022-04-02T14:18:00Z,26.1540,-94.7874,10.1,22.6,11111222
Shell,ioos:station:wmo:42877:2,2022-04-02T14:28:00Z,26.1540,-94.7874,10.1,22.7,11111222
Shell,ioos:station:wmo:42877:2,2022-04-02T14:38:00Z,26.1540,-94.7874,10.1,22.7,11111222
Shell,ioos:station:wmo:42877:2,2022-04-02T14:48:00Z,26.1540,-94.7874,10.1,22.7,11111222
Shell,ioos:station:wmo:42877:2,2022-04-02T14:58:00Z,26.1540,-94.7874,10.3,22.7,11111222
Shell,ioos:station:wmo:42877:2,2022-04-02T15:08:00Z,26.1540,-94.7874,10.3,22.7,11111222
Shell,ioos:station:wmo:42877:2,2022-04-02T15:18:00Z,26.1540,-94.7874,10.1,22.7,11111222
Shell,ioos:station:wmo:42877:2,2022-04-02T15:28:00Z,26.1540,-94.7874,10.0,22.7,11111222
Shell,ioos:station:wmo:42877:2,2022-04-02T15:38:00Z,26.1540,-94.7874,10.0,22.8,11111222
Shell,ioos:station:wmo:42877:2,2022-04-02T15:49:00Z,26.1540,-94.7874,10.1,22.8,11111222
Shell,ioos:station:wmo:42877:2,2022-04-02T15:59:00Z,26.1540,-94.7874,10.1,22.8,11111222
Shell,ioos:station:wmo:42877:2,2022-04-02T16:08:00Z,26.1540,-94.7874,10.0,22.8,11111222
Shell,ioos:station:wmo:42877:2,2022-04-02T16:18:00Z,26.1540,-94.7874,10.1,22.8,11111222
Shell,ioos:station:wmo:42877:2,2022-04-02T16:28:00Z,26.1540,-94.7874,10.1,22.8,11111222
Shell,ioos:station:wmo:42877:2,2022-04-02T16:38:00Z,26.1540,-94.7874,10.1,22.8,11111222
Shell,ioos:station:wmo:42877:2,2022-04-02T16:48:00Z,26.1540,-94.7874,10.1,22.9,11111222
Shell,ioos:station:wmo:42877:2,2022-04-02T16:58:00Z,26.1540,-94.7874,10.1,22.9,11111222
Shell,ioos:station:wmo:42877:2,2022-04-02T17:08:00Z,26.1540,-94.7874,10.1,22.9,11111222
Shell,ioos:station:wmo:42877:2,2022-04-02T17:18:00Z,26.1540,-94.7874,10.1,22.9,11111222
Shell,ioos:station:wmo:42877:2,2022-04-02T17:29:00Z,26.1540,-94.7874,10.1,22.9,11111222
Shell,ioos:station:wmo:42877:2,2022-04-02T17:39:00Z,26.1540,-94.7874,10.1,22.9,11111222
Shell,ioos:station:wmo:42877:2,2022-04-02T17:48:00Z,26.1540,-94.7874,10.1,23.0,11111222
Shell,ioos:station:wmo:42877:2,2022-04-02T17:58:00Z,26.1540,-94.7874,10.1,23.0,11111222
Shell,ioos:station:wmo:42877:2,2022-04-02T18:08:00Z,26.1540,-94.7874,10.3,23.0,11111222
Shell,ioos:station:wmo:42877:2,2022-04-02T18:18:00Z,26.1540,-94.7874,10.1,23.0,11111222
Shell,ioos:station:wmo:42877:2,2022-04-02T18:28:00Z,26.1540,-94.7874,10.1,23.0,11111222
Shell,ioos:station:wmo:42877:2,2022-04-02T18:38:00Z,26.1540,-94.7874,10.1,23.0,11111222
Shell,ioos:station:wmo:42877:2,2022-04-02T18:48:00Z,26.1540,-94.7874,10.2,23.1,11111222
Shell,ioos:station:wmo:42877:2,2022-04-02T18:59:00Z,26.1540,-94.7874,10.5,23.1,11111222
Shell,ioos:station:wmo:42877:2,2022-04-02T19:08:00Z,26.1540,-94.7874,10.4,23.1,11111222
Shell,ioos:station:wmo:42877:2,2022-04-02T19:18:00Z,26.1540,-94.7874,10.2,23.1,11111222
Shell,ioos:station:wmo:42877:2,2022-04-02T19:28:00Z,26.1540,-94.7874,10.1,23.1,11111222
Shell,ioos:station:wmo:42877:2,2022-04-02T19:38:00Z,26.1540,-94.7874,10.1,23.1,11111222
Shell,ioos:station:wmo:42877:2,2022-04-02T19:48:00Z,26.1540,-94.7874,10.1,23.1,11111222
Shell,ioos:station:wmo:42877:2,2022-04-02T19:58:00Z,26.1540,-94.7874,10.1,23.1,11111222
Shell,ioos:station:wmo:42877:2,2022-04-02T20:08:00Z,26.1540,-94.7874,10.1,23.1,11111222
Shell,ioos:station:wmo:42877:2,2022-04-02T20:18:00Z,26.1540,-94.7874,10.1,23.1,11111222
Shell,ioos:station:wmo:42877:2,2022-04-02T20:28:00Z,26.1540,-94.7874,10.1,23.1,11111222
Shell,ioos:station:wmo:42877:2,2022-04-02T20:39:00Z,26.1540,-94.7874,10.1,23.1,11111222
Shell,ioos:station:wmo:42877:2,2022-04-02T20:49:00Z,26.1540,-94.7874,10.1,23.1,11111222
Shell,ioos:station:wmo:42877:2,2022-04-02T20:59:00Z,26.1540,-94.7874,10.1,23.1,11111222